Time,TemperatureF,DewpointF,PressureIn,WindDirection,WindDirectionDegrees,WindSpeedMPH,WindSpeedGustMPH,Humidity,HourlyPrecipIn,Conditions,Clouds,dailyrainin,SoftwareType,DateUTC
2013-03-07 00:01:00,43.0,34.0,29.71,SW,225,0.0,1.0,69,0.00,,,0.00,,2013-03-06 23:01:00,
2013-03-07 00:11:00,43.0,34.0,29.71,SW,225,0.0,1.0,69,0.00,,,0.00,,2013-03-06 23:11:00,
2013-03-07 00:21:00,43.0,34.0,29.71,SW,225,0.0,1.0,69,0.00,,,0.00,,2013-03-06 23:21:00,
2013-03-07 00:31:00,43.0,34.0,29.70,SW,225,0.0,1.0,71,0.00,,,0.00,,2013-03-06 23:31:00,
2013-03-07 00:41:00,43.0,34.0,29.70,SW,225,0.0,1.0,71,0.00,,,0.00,,2013-03-06 23:41:00,
2013-03-07 00:52:00,44.0,35.0,29.70,NE,45,0.0,2.0,71,0.00,,,0.00,,2013-03-06 23:52:00,
2013-03-07 01:01:00,43.0,35.0,29.70,NE,45,1.0,2.0,72,0.00,,,0.00,,2013-03-07 00:01:00,
2013-03-07 01:11:00,43.0,35.0,29.70,NE,45,1.0,2.0,72,0.00,,,0.00,,2013-03-07 00:11:00,
2013-03-07 01:21:00,43.0,35.0,29.70,NE,45,0.0,3.0,72,0.00,,,0.00,,2013-03-07 00:21:00,
2013-03-07 01:32:00,43.0,35.0,29.70,NE,45,0.0,3.0,74,0.00,,,0.00,,2013-03-07 00:32:00,
2013-03-07 01:41:00,43.0,35.0,29.70,NE,45,0.0,3.0,74,0.00,,,0.00,,2013-03-07 00:41:00,
2013-03-07 01:51:00,43.0,35.0,29.70,NE,45,0.0,2.0,73,0.00,,,0.00,,2013-03-07 00:51:00,
2013-03-07 02:01:00,42.0,35.0,29.69,North,0,0.0,2.0,75,0.00,,,0.00,,2013-03-07 01:01:00,
2013-03-07 02:11:00,42.0,35.0,29.69,North,0,0.0,2.0,75,0.00,,,0.00,,2013-03-07 01:11:00,
2013-03-07 02:21:00,42.0,35.0,29.69,NE,45,0.0,1.0,75,0.00,,,0.00,,2013-03-07 01:21:00,
2013-03-07 02:31:00,42.0,35.0,29.68,NE,45,1.0,3.0,76,0.00,,,0.00,,2013-03-07 01:31:00,
2013-03-07 02:41:00,42.0,35.0,29.68,NE,45,1.0,3.0,76,0.00,,,0.00,,2013-03-07 01:41:00,
2013-03-07 02:51:00,42.0,35.0,29.68,West,270,0.0,3.0,77,0.00,,,0.00,,2013-03-07 01:51:00,
2013-03-07 03:01:00,41.0,34.0,29.67,NE,45,1.0,2.0,77,0.00,,,0.00,,2013-03-07 02:01:00,
2013-03-07 03:11:00,41.0,34.0,29.67,NE,45,1.0,2.0,77,0.00,,,0.00,,2013-03-07 02:11:00,
2013-03-07 03:21:00,41.0,34.0,29.67,NE,45,0.0,2.0,77,0.00,,,0.00,,2013-03-07 02:21:00,
2013-03-07 03:31:00,41.0,35.0,29.67,SW,225,0.0,3.0,78,0.00,,,0.00,,2013-03-07 02:31:00,
2013-03-07 03:41:00,41.0,35.0,29.67,SW,225,0.0,3.0,78,0.00,,,0.00,,2013-03-07 02:41:00,
2013-03-07 03:51:00,41.0,35.0,29.67,SW,225,0.0,3.0,78,0.00,,,0.00,,2013-03-07 02:51:00,
2013-03-07 04:01:00,41.0,35.0,29.67,SW,225,0.0,1.0,79,0.00,,,0.00,,2013-03-07 03:01:00,
2013-03-07 04:11:00,41.0,35.0,29.67,SW,225,0.0,1.0,79,0.00,,,0.00,,2013-03-07 03:11:00,
2013-03-07 04:21:00,41.0,35.0,29.66,East,83,1.0,2.0,79,0.00,,,0.00,,2013-03-07 03:21:00,
2013-03-07 04:31:00,41.0,35.0,29.66,North,0,1.0,3.0,79,0.00,,,0.00,,2013-03-07 03:31:00,
2013-03-07 04:41:00,41.0,35.0,29.66,North,0,1.0,3.0,79,0.00,,,0.00,,2013-03-07 03:41:00,
2013-03-07 04:51:00,41.0,35.0,29.66,North,0,1.0,3.0,79,0.00,,,0.00,,2013-03-07 03:51:00,
2013-03-07 05:01:00,41.0,35.0,29.66,North,0,1.0,3.0,79,0.00,,,0.00,,2013-03-07 04:01:00,
2013-03-07 05:11:00,41.0,35.0,29.66,North,0,1.0,3.0,79,0.00,,,0.00,,2013-03-07 04:11:00,
2013-03-07 09:34:00,41.0,34.0,29.67,West,270,0.0,2.0,76,0.00,,,0.00,,2013-03-07 08:34:00,
2013-03-07 09:44:00,41.0,34.0,29.67,West,270,0.0,2.0,76,0.00,,,0.00,,2013-03-07 08:44:00,
2013-03-07 09:53:00,41.0,33.0,29.67,West,270,0.0,2.0,74,0.00,,,0.00,,2013-03-07 08:53:00,
2013-03-07 10:02:00,42.0,35.0,29.67,NW,315,0.0,1.0,75,0.00,,,0.00,,2013-03-07 09:02:00,
2013-03-07 10:11:00,42.0,35.0,29.67,NW,315,0.0,1.0,75,0.00,,,0.00,,2013-03-07 09:11:00,
2013-03-07 10:22:00,42.0,34.0,29.67,NE,45,0.0,1.0,73,0.00,,,0.00,,2013-03-07 09:22:00,
2013-03-07 10:32:00,42.0,34.0,29.66,North,0,1.0,3.0,73,0.00,,,0.00,,2013-03-07 09:32:00,
2013-03-07 10:42:00,42.0,34.0,29.66,North,0,1.0,3.0,73,0.00,,,0.00,,2013-03-07 09:42:00,
2013-03-07 10:52:00,42.0,34.0,29.66,North,0,0.0,2.0,74,0.00,,,0.00,,2013-03-07 09:52:00,
2013-03-07 11:02:00,43.0,35.0,29.66,West,270,0.0,1.0,73,0.00,,,0.00,,2013-03-07 10:02:00,
2013-03-07 11:11:00,43.0,35.0,29.66,West,270,0.0,1.0,73,0.00,,,0.00,,2013-03-07 10:11:00,
2013-03-07 11:22:00,44.0,35.0,29.65,West,270,1.0,2.0,71,0.00,,,0.00,,2013-03-07 10:22:00,
2013-03-07 11:32:00,45.0,35.0,29.65,South,180,0.0,2.0,69,0.00,,,0.00,,2013-03-07 10:32:00,
2013-03-07 11:42:00,45.0,35.0,29.65,South,180,0.0,2.0,69,0.00,,,0.00,,2013-03-07 10:42:00,
2013-03-07 11:52:00,46.0,36.0,29.65,SSW,196,1.0,2.0,68,0.00,,,0.00,,2013-03-07 10:52:00,
2013-03-07 12:02:00,46.0,36.0,29.66,SW,225,1.0,3.0,67,0.00,,,0.00,,2013-03-07 11:02:00,
2013-03-07 12:11:00,46.0,36.0,29.66,SW,225,1.0,3.0,67,0.00,,,0.00,,2013-03-07 11:11:00,
2013-03-07 12:22:00,47.0,36.0,29.66,SW,225,1.0,3.0,66,0.00,,,0.00,,2013-03-07 11:22:00,
2013-03-07 12:32:00,48.0,37.0,29.66,North,0,1.0,2.0,65,0.00,,,0.00,,2013-03-07 11:32:00,
2013-03-07 12:42:00,48.0,37.0,29.66,North,0,1.0,2.0,65,0.00,,,0.00,,2013-03-07 11:42:00,
2013-03-07 12:52:00,48.0,37.0,29.66,North,0,2.0,3.0,66,0.00,,,0.00,,2013-03-07 11:52:00,
2013-03-07 13:02:00,49.0,38.0,29.66,WNW,302,1.0,2.0,65,0.00,,,0.00,,2013-03-07 12:02:00,
2013-03-07 13:11:00,49.0,38.0,29.66,WNW,302,1.0,2.0,65,0.00,,,0.00,,2013-03-07 12:11:00,
2013-03-07 13:22:00,49.0,37.0,29.65,NE,50,1.0,2.0,64,0.00,,,0.00,,2013-03-07 12:22:00,
2013-03-07 13:32:00,50.0,38.0,29.65,NE,45,0.0,3.0,64,0.00,,,0.00,,2013-03-07 12:32:00,
2013-03-07 13:42:00,50.0,38.0,29.65,NE,45,0.0,3.0,64,0.00,,,0.00,,2013-03-07 12:42:00,
2013-03-07 13:52:00,50.0,38.0,29.65,NE,45,0.0,3.0,64,0.00,,,0.00,,2013-03-07 12:52:00,
2013-03-07 14:02:00,51.0,38.0,29.65,NE,45,0.0,2.0,62,0.00,,,0.00,,2013-03-07 13:02:00,
2013-03-07 14:12:00,51.0,38.0,29.65,NE,45,0.0,2.0,62,0.00,,,0.00,,2013-03-07 13:12:00,
2013-03-07 14:22:00,51.0,38.0,29.65,NNE,26,0.0,3.0,62,0.00,,,0.00,,2013-03-07 13:22:00,
2013-03-07 14:32:00,51.0,38.0,29.65,NW,315,1.0,3.0,62,0.00,,,0.00,,2013-03-07 13:32:00,
2013-03-07 14:41:00,51.0,38.0,29.65,NW,315,1.0,3.0,62,0.00,,,0.00,,2013-03-07 13:41:00,
2013-03-07 14:52:00,51.0,39.0,29.64,NE,45,0.0,3.0,64,0.00,,,0.00,,2013-03-07 13:52:00,
2013-03-07 15:01:00,51.0,39.0,29.64,NE,45,0.0,3.0,64,0.00,,,0.00,,2013-03-07 14:01:00,
2013-03-07 15:11:00,51.0,39.0,29.64,NE,45,0.0,3.0,64,0.00,,,0.00,,2013-03-07 14:11:00,
2013-03-07 15:22:00,51.0,39.0,29.64,NE,45,2.0,3.0,64,0.00,,,0.00,,2013-03-07 14:22:00,
2013-03-07 15:32:00,51.0,40.0,29.64,North,11,1.0,3.0,65,0.00,,,0.00,,2013-03-07 14:32:00,
2013-03-07 15:42:00,51.0,40.0,29.64,North,11,1.0,3.0,65,0.00,,,0.00,,2013-03-07 14:42:00,
2013-03-07 15:52:00,51.0,40.0,29.64,West,270,1.0,3.0,65,0.00,,,0.00,,2013-03-07 14:52:00,
2013-03-07 16:02:00,51.0,41.0,29.65,NE,45,0.0,2.0,68,0.00,,,0.00,,2013-03-07 15:02:00,
2013-03-07 16:11:00,51.0,41.0,29.65,NE,45,0.0,2.0,68,0.00,,,0.00,,2013-03-07 15:11:00,
2013-03-07 16:22:00,51.0,41.0,29.65,NNE,22,0.0,3.0,68,0.00,,,0.00,,2013-03-07 15:22:00,
2013-03-07 16:32:00,50.0,40.0,29.65,NE,45,1.0,3.0,68,0.00,,,0.00,,2013-03-07 15:32:00,
2013-03-07 16:42:00,50.0,40.0,29.65,NE,45,1.0,3.0,68,0.00,,,0.00,,2013-03-07 15:42:00,
2013-03-07 16:52:00,50.0,40.0,29.65,East,79,1.0,3.0,68,0.00,,,0.00,,2013-03-07 15:52:00,
2013-03-07 17:01:00,51.0,41.0,29.65,NE,45,0.0,3.0,68,0.00,,,0.00,,2013-03-07 16:01:00,
2013-03-07 17:11:00,51.0,41.0,29.65,NE,45,0.0,3.0,68,0.00,,,0.00,,2013-03-07 16:11:00,
2013-03-07 17:22:00,51.0,40.0,29.65,NE,45,0.0,2.0,67,0.00,,,0.00,,2013-03-07 16:22:00,
2013-03-07 17:32:00,51.0,41.0,29.66,NE,45,0.0,3.0,68,0.00,,,0.00,,2013-03-07 16:32:00,
2013-03-07 17:42:00,51.0,41.0,29.66,NE,45,0.0,3.0,68,0.00,,,0.00,,2013-03-07 16:42:00,
2013-03-07 17:52:00,50.0,40.0,29.66,NE,45,0.0,3.0,69,0.00,,,0.00,,2013-03-07 16:52:00,
2013-03-07 18:01:00,50.0,41.0,29.67,NE,45,1.0,3.0,70,0.00,,,0.00,,2013-03-07 17:01:00,
2013-03-07 18:11:00,50.0,41.0,29.67,NE,45,1.0,3.0,70,0.00,,,0.00,,2013-03-07 17:11:00,
2013-03-07 18:21:00,50.0,41.0,29.67,NE,55,1.0,3.0,70,0.00,,,0.00,,2013-03-07 17:21:00,
2013-03-07 18:42:00,50.0,41.0,29.67,NE,45,1.0,2.0,71,0.00,,,0.00,,2013-03-07 17:42:00,
2013-03-07 18:52:00,50.0,41.0,29.67,NE,45,0.0,2.0,71,0.00,,,0.00,,2013-03-07 17:52:00,
2013-03-07 19:02:00,49.0,40.0,29.68,NE,45,1.0,3.0,72,0.00,,,0.00,,2013-03-07 18:02:00,
2013-03-07 19:11:00,49.0,40.0,29.68,NE,45,1.0,3.0,72,0.00,,,0.00,,2013-03-07 18:11:00,
2013-03-07 19:21:00,49.0,41.0,29.68,NE,41,0.0,2.0,73,0.00,,,0.00,,2013-03-07 18:21:00,
2013-03-07 19:32:00,49.0,41.0,29.69,South,180,0.0,1.0,73,0.00,,,0.00,,2013-03-07 18:32:00,
2013-03-07 19:41:00,49.0,41.0,29.69,South,180,0.0,1.0,73,0.00,,,0.00,,2013-03-07 18:41:00,
2013-03-07 19:52:00,49.0,41.0,29.69,East,90,0.0,1.0,74,0.00,,,0.00,,2013-03-07 18:52:00,
2013-03-07 20:02:00,49.0,41.0,29.69,NE,45,0.0,1.0,74,0.00,,,0.00,,2013-03-07 19:02:00,
2013-03-07 20:11:00,49.0,41.0,29.69,NE,45,0.0,1.0,74,0.00,,,0.00,,2013-03-07 19:11:00,
2013-03-07 20:22:00,49.0,42.0,29.69,North,0,0.0,3.0,76,0.00,,,0.00,,2013-03-07 19:22:00,
2013-03-07 20:33:00,49.0,42.0,29.69,NE,45,0.0,1.0,77,0.00,,,0.00,,2013-03-07 19:33:00,
2013-03-07 20:42:00,49.0,42.0,29.69,NE,45,0.0,1.0,77,0.00,,,0.00,,2013-03-07 19:42:00,
2013-03-07 20:52:00,49.0,42.0,29.70,NE,45,0.0,2.0,78,0.00,,,0.00,,2013-03-07 19:52:00,
2013-03-07 21:01:00,49.0,43.0,29.68,NE,45,0.0,2.0,79,0.00,,,0.00,,2013-03-07 20:01:00,
2013-03-07 21:12:00,49.0,43.0,29.68,NE,45,0.0,2.0,79,0.00,,,0.00,,2013-03-07 20:12:00,
2013-03-07 21:21:00,48.0,42.0,29.69,NE,45,1.0,2.0,80,0.00,,,0.00,,2013-03-07 20:21:00,
2013-03-07 21:32:00,48.0,43.0,29.69,NE,56,0.0,2.0,82,0.00,,,0.00,,2013-03-07 20:32:00,
2013-03-07 21:42:00,48.0,43.0,29.69,NE,56,0.0,2.0,82,0.00,,,0.00,,2013-03-07 20:42:00,
2013-03-07 21:52:00,48.0,43.0,29.69,NE,45,2.0,5.0,84,0.00,,,0.00,,2013-03-07 20:52:00,
2013-03-07 22:02:00,48.0,44.0,29.69,NE,56,1.0,3.0,85,0.00,,,0.00,,2013-03-07 21:02:00,
2013-03-07 22:11:00,48.0,44.0,29.69,NE,56,1.0,3.0,85,0.00,,,0.00,,2013-03-07 21:11:00,
2013-03-07 22:22:00,47.0,43.0,29.69,ENE,57,1.0,3.0,86,0.00,,,0.00,,2013-03-07 21:22:00,
2013-03-07 22:32:00,47.0,43.0,29.70,NE,45,1.0,3.0,87,0.00,,,0.00,,2013-03-07 21:32:00,
2013-03-07 22:42:00,47.0,43.0,29.70,NE,45,1.0,3.0,87,0.00,,,0.00,,2013-03-07 21:42:00,
2013-03-07 22:52:00,47.0,44.0,29.70,NE,45,0.0,3.0,88,0.00,,,0.00,,2013-03-07 21:52:00,
2013-03-07 23:01:00,47.0,44.0,29.70,NE,45,1.0,3.0,88,0.00,,,0.00,,2013-03-07 22:01:00,
2013-03-07 23:11:00,47.0,44.0,29.70,NE,45,1.0,3.0,88,0.00,,,0.00,,2013-03-07 22:11:00,
2013-03-07 23:22:00,47.0,44.0,29.70,East,90,0.0,2.0,88,0.00,,,0.00,,2013-03-07 22:22:00,
2013-03-07 23:32:00,46.0,43.0,29.70,NE,45,0.0,1.0,88,0.00,,,0.00,,2013-03-07 22:32:00,
2013-03-07 23:42:00,46.0,43.0,29.70,NE,45,0.0,1.0,88,0.00,,,0.00,,2013-03-07 22:42:00,
2013-03-07 23:52:00,46.0,43.0,29.70,NE,45,0.0,2.0,88,0.00,,,0.00,,2013-03-07 22:52:00,